User: anonymous
Location: Kailua
(21.4020°N, 157.7390°W)
Time: 18:04:19
(UTC-10:00)
Language:

Cosmos 2297 Rocket - Orbit

View from above orbital plane
View from above orbital plane
View from above satellite
View from above satellite

Ground track
Ground track

The orbit data is extracted from the following two-line orbital elements,

1 23405U 94077B   14261.15979795  .00000261  00000-0  15938-3 0  9467
2 23405 070.9843 164.1807 0002302 351.9037 159.7362 14.15108171 23613
Epoch (UTC): 18 September 2014 03:50:06
Eccentricity: 0.0002302
inclination: 70.9843°
perigee height: 840 km
apogee height: 843 km
right ascension of ascending node: 164.1807°
argument of perigee: 351.9037°
revolutions per day: 14.15108171
mean anomaly at epoch: 159.7362°
orbit number at epoch: 2361

The dashed part of the orbit path shows where the satellite is in the earth's shadow,  

DLR